Tracking 28794 objects as of 19-Apr-2024
HD Live streaming from Space Station
objects crossing your sky now

ANIK A3 (TELESAT-3)

Track ANIK A3 (TELESAT-3) now!
ANIK A3 (TELESAT-3) is classified as:


NORAD ID: 7790
Int'l Code: 1975-038A
Perigee: 35,849.4 km
Apogee: 35,870.8 km
Inclination: 9.4 °
Period: 1,439.5 minutes
Semi major axis: 42231 km
RCS: 3.6797 m2 (large)
Launch date: May 7, 1975
Source: Canada (CA)
Launch site: AIR FORCE EASTERN TEST RANGE (AFETR)
Your satellite tracking list
Your tracking list is empty




NASA's NSSDC Master Catalog

Two Line Element Set (TLE):
1 07790U 75038A   24110.51678896 -.00000118  00000-0  00000-0 0  9995
2 07790   9.4064 308.9515 0002525 120.9246 225.1782  1.00035554122068
Source of the keplerian elements: AFSPC